TimeCDT,TemperatureF,Dew PointF,Humidity,Sea Level PressureIn,VisibilityMPH,Wind Direction,Wind SpeedMPH,Gust SpeedMPH,PrecipitationIn,Events,Conditions,WindDirDegrees,DateUTC
12:08 AM,17.6,8.6,68,29.87,10.0,SE,6.9,-,N/A,,Overcast,140,2013-03-18 05:08:00
12:28 AM,17.6,8.6,68,29.86,10.0,SE,3.5,-,N/A,,Overcast,140,2013-03-18 05:28:00
12:48 AM,17.6,10.4,73,29.85,10.0,Calm,Calm,-,N/A,,Overcast,0,2013-03-18 05:48:00
1:08 AM,17.6,10.4,73,29.84,10.0,Calm,Calm,-,N/A,,Overcast,0,2013-03-18 06:08:00
1:28 AM,17.6,10.4,73,29.83,10.0,Calm,Calm,-,N/A,,Overcast,0,2013-03-18 06:28:00
1:48 AM,17.6,10.4,73,29.81,10.0,Calm,Calm,-,N/A,,Overcast,0,2013-03-18 06:48:00
2:08 AM,19.4,10.4,68,29.79,10.0,Calm,Calm,-,N/A,,Overcast,0,2013-03-18 07:08:00
2:28 AM,19.4,10.4,68,29.77,10.0,ESE,3.5,-,N/A,,Overcast,110,2013-03-18 07:28:00
2:48 AM,19.4,12.2,74,29.75,10.0,SE,4.6,-,N/A,,Overcast,130,2013-03-18 07:48:00
3:08 AM,21.2,12.2,68,29.74,7.0,SSE,4.6,-,N/A,,Overcast,150,2013-03-18 08:08:00
3:28 AM,21.2,12.2,68,29.73,2.0,SE,5.8,-,N/A,Snow,Light Snow,140,2013-03-18 08:28:00
3:48 AM,19.4,14.0,80,29.72,5.0,SSE,3.5,-,N/A,Snow,Light Snow,150,2013-03-18 08:48:00
4:08 AM,19.4,15.8,86,29.73,0.8,Calm,Calm,-,N/A,Snow,Light Snow,0,2013-03-18 09:08:00
4:28 AM,19.4,15.8,86,29.73,0.2,SSE,4.6,-,N/A,Snow,Snow,160,2013-03-18 09:28:00
4:48 AM,19.4,15.8,86,29.71,0.8,SE,3.5,-,N/A,Snow,Light Snow,130,2013-03-18 09:48:00
5:08 AM,19.4,15.8,86,29.69,1.2,SE,4.6,-,N/A,Snow,Light Snow,140,2013-03-18 10:08:00
5:28 AM,19.4,15.8,86,29.68,10.0,SE,3.5,-,0.01,Snow,Light Snow,140,2013-03-18 10:28:00
6:08 AM,19.4,15.8,86,29.66,0.8,SE,4.6,-,N/A,Snow,Light Snow,140,2013-03-18 11:08:00
6:28 AM,19.4,15.8,86,29.65,0.5,ESE,4.6,-,N/A,Snow,Snow,120,2013-03-18 11:28:00
6:48 AM,19.4,15.8,86,29.64,1.0,Calm,Calm,-,N/A,Snow,Light Snow,0,2013-03-18 11:48:00
7:08 AM,19.4,15.8,86,29.63,1.0,Calm,Calm,-,N/A,Snow,Light Snow,0,2013-03-18 12:08:00
7:28 AM,19.4,17.6,93,29.62,1.0,Calm,Calm,-,N/A,Snow,Light Snow,0,2013-03-18 12:28:00
7:48 AM,19.4,17.6,93,29.61,1.2,ESE,3.5,-,N/A,Snow,Light Snow,120,2013-03-18 12:48:00
8:08 AM,19.4,17.6,93,29.60,0.5,SE,3.5,-,0.01,Snow,Light Snow,140,2013-03-18 13:08:00
8:28 AM,19.4,17.6,93,29.59,0.5,SE,3.5,-,0.02,Snow,Light Snow,140,2013-03-18 13:28:00
8:48 AM,21.2,17.6,86,29.57,0.5,SE,3.5,-,0.03,Snow,Snow,140,2013-03-18 13:48:00
9:08 AM,21.2,17.6,86,29.56,0.5,SE,3.5,-,N/A,Snow,Snow,140,2013-03-18 14:08:00
9:28 AM,21.2,19.4,93,29.56,0.2,ESE,3.5,-,0.02,Snow,Snow,110,2013-03-18 14:28:00
9:48 AM,21.2,19.4,93,29.55,0.5,SE,5.8,-,0.03,Snow,Light Snow,130,2013-03-18 14:48:00
10:08 AM,23.0,19.4,86,29.54,1.0,ESE,4.6,-,N/A,Snow,Light Snow,110,2013-03-18 15:08:00
10:28 AM,23.0,21.2,93,29.54,1.0,Calm,Calm,-,0.01,Snow,Light Snow,0,2013-03-18 15:28:00
10:48 AM,24.8,21.2,86,29.53,2.5,Calm,Calm,-,0.04,Snow,Light Snow,0,2013-03-18 15:48:00
11:08 AM,24.8,21.2,86,29.53,1.0,ESE,4.6,-,0.01,Snow,Light Snow,120,2013-03-18 16:08:00
11:28 AM,24.8,21.2,86,29.52,0.8,SE,3.5,-,0.03,Snow,Light Snow,140,2013-03-18 16:28:00
11:48 AM,26.6,21.2,80,29.51,0.8,SE,3.5,-,0.05,Snow,Light Snow,140,2013-03-18 16:48:00
12:08 PM,26.6,23.0,86,29.51,0.8,SSE,4.6,-,0.02,Snow,Light Snow,160,2013-03-18 17:08:00
12:28 PM,26.6,24.8,93,29.50,1.0,Calm,Calm,-,0.03,Snow,Light Snow,0,2013-03-18 17:28:00
12:48 PM,28.4,24.8,86,29.49,1.2,ESE,4.6,-,0.06,Snow,Light Snow,120,2013-03-18 17:48:00
1:08 PM,28.4,24.8,86,29.48,1.5,SSE,5.8,-,0.02,Snow,Light Snow,150,2013-03-18 18:08:00
1:28 PM,28.4,24.8,86,29.47,1.5,SSE,6.9,-,0.03,Snow,Light Snow,150,2013-03-18 18:28:00
1:48 PM,28.4,24.8,86,29.47,1.0,ESE,4.6,-,0.04,Snow,Light Snow,120,2013-03-18 18:48:00
2:08 PM,28.4,23.0,80,29.47,1.2,SE,5.8,-,N/A,Snow,Light Snow,140,2013-03-18 19:08:00
2:28 PM,28.4,24.8,86,29.47,1.0,SSE,4.6,-,0.01,Snow,Light Snow,150,2013-03-18 19:28:00
2:48 PM,28.4,24.8,86,29.46,0.8,Calm,Calm,-,0.02,Snow,Light Snow,0,2013-03-18 19:48:00
3:09 PM,28.4,24.8,86,29.46,1.2,SE,3.5,-,0.01,Snow,Light Snow,140,2013-03-18 20:09:00
3:28 PM,28.4,24.8,86,29.46,1.5,SE,3.5,-,0.02,Snow,Light Snow,130,2013-03-18 20:28:00
3:48 PM,28.4,24.8,86,29.46,2.0,Calm,Calm,-,0.03,Snow,Light Snow,0,2013-03-18 20:48:00
4:08 PM,28.4,24.8,86,29.46,1.5,Calm,Calm,-,N/A,Snow,Light Snow,0,2013-03-18 21:08:00
4:28 PM,26.6,24.8,93,29.47,1.0,SSW,3.5,-,0.01,Snow,Light Snow,210,2013-03-18 21:28:00
4:48 PM,26.6,24.8,93,29.47,1.0,Calm,Calm,-,0.03,Snow,Light Snow,0,2013-03-18 21:48:00
5:08 PM,26.6,24.8,93,29.47,1.0,Calm,Calm,-,0.01,Snow,Light Snow,0,2013-03-18 22:08:00
5:28 PM,26.6,24.8,93,29.47,0.8,Calm,Calm,-,0.01,Snow,Light Snow,0,2013-03-18 22:28:00
5:48 PM,26.6,24.8,93,29.48,0.8,South,4.6,-,0.02,Snow,Light Snow,190,2013-03-18 22:48:00
6:08 PM,24.8,21.2,86,29.48,1.2,SSW,5.8,-,N/A,Snow,Light Snow,210,2013-03-18 23:08:00
6:29 PM,24.8,21.2,86,29.49,2.0,SW,4.6,-,N/A,Snow,Light Snow,230,2013-03-18 23:29:00
6:48 PM,23.0,19.4,86,29.50,1.5,Calm,Calm,-,N/A,Snow,Light Snow,0,2013-03-18 23:48:00
7:08 PM,23.0,19.4,86,29.50,1.5,Calm,Calm,-,0.01,Snow,Light Snow,0,2013-03-19 00:08:00
7:28 PM,23.0,19.4,86,29.50,1.2,Calm,Calm,-,0.01,Snow,Light Snow,0,2013-03-19 00:28:00
7:48 PM,23.0,19.4,86,29.51,0.8,Calm,Calm,-,0.01,Snow,Light Snow,0,2013-03-19 00:48:00
8:08 PM,23.0,19.4,86,29.51,1.0,Calm,Calm,-,0.01,Snow,Light Snow,0,2013-03-19 01:08:00
8:28 PM,21.2,19.4,93,29.51,1.0,Calm,Calm,-,0.01,Snow,Light Snow,0,2013-03-19 01:28:00
8:48 PM,21.2,19.4,93,29.51,1.0,Calm,Calm,-,0.01,Snow,Light Snow,0,2013-03-19 01:48:00
9:08 PM,23.0,19.4,86,29.51,1.2,Calm,Calm,-,N/A,Snow,Light Snow,0,2013-03-19 02:08:00
9:28 PM,23.0,19.4,86,29.52,0.8,WNW,10.4,-,0.01,Snow,Light Snow,300,2013-03-19 02:28:00
9:48 PM,21.2,19.4,93,29.53,0.8,WNW,4.6,-,0.01,Snow,Light Snow,290,2013-03-19 02:48:00
10:08 PM,21.2,19.4,93,29.55,0.8,NW,9.2,18.4,N/A,Snow,Light Snow,320,2013-03-19 03:08:00
10:28 PM,21.2,17.6,86,29.56,1.2,NW,9.2,19.6,N/A,Snow,Light Snow,320,2013-03-19 03:28:00
10:48 PM,19.4,17.6,93,29.56,1.0,NW,10.4,18.4,N/A,Snow,Light Snow,320,2013-03-19 03:48:00
11:08 PM,19.4,17.6,93,29.57,1.8,NW,6.9,16.1,N/A,Snow,Light Snow,320,2013-03-19 04:08:00
11:28 PM,19.4,17.6,93,29.58,1.8,NNW,9.2,-,N/A,Snow,Light Snow,330,2013-03-19 04:28:00
11:48 PM,19.4,17.6,93,29.58,1.8,NW,8.1,20.7,N/A,Snow,Light Snow,320,2013-03-19 04:48:00